Vertical_Velocity
-0 -4 1 -3 -0 -1 1 2 -1 -1 -0 -1 -2 -0 3 4 -10 -4 6 8 0 -7 -6 -2 1 0 -4 9 8 2 -21 3 10 8 8 -9 -2 2 1 -1 2 1 0 -3 0
-1 -1 -4 0 -2 1 1 -1 1 -1 2 1 0 -3 -1 9 -9 1 4 1 -4 -0 -2 -9 3 -3 -4 7 -2 -4 -13 4 10 8 5 -4 7 7 -3 -3 -1 -3 6 7 6
-2 1 1 -1 -0 -4 -1 2 -0 1 -1 -1 -2 -1 -2 4 -4 4 1 -4 -8 -6 1 -3 0 -3 -2 2 6 10 -11 8 7 13 -8 -1 -2 -0 -6 5 -1 -9 -5 1 2
-2 -3 1 2 -3 -0 2 -3 -1 -0 -0 3 0 -3 -2 7 -23 5 4 -2 -4 -4 -2 -2 0 -2 4 -0 10 -13 -2 1 16 3 -2 0 1 -2 -4 -1 -1 -5 -1 -2 3
-2 -1 -2 -3 -3 -3 3 -1 -3 -0 -0 -1 1 -2 -2 -1 -1 -12 3 -8 -8 -2 -4 -0 -3 -1 -9 7 5 -14 8 2 9 3 -1 0 -2 -5 0 1 -4 -2 2 -7 -3
3 -0 3 -0 -5 -0 -2 -1 -1 -3 -1 0 -2 -2 8 -15 8 -3 -3 -8 -3 -0 -1 -1 -3 -8 -5 1 -12 3 -0 1 3 1 -2 -0 0 -6 6 3 2 -5 4 -2 -3
5 0 4 3 -2 -0 -0 -1 -2 -1 -1 -1 -4 2 2 2 -1 -1 -2 -8 1 -3 0 -2 -7 -5 5 6 5 -5 -11 -3 -4 1 -6 -1 -6 -8 7 1 -1 -6 1 2 0
1 3 3 5 -2 -1 -4 1 -0 0 -1 -3 -2 -1 0 2 3 -9 1 -5 1 -1 -4 -0 -4 -1 0 4 -1 -1 -4 -4 19 2 4 -5 1 8 2 -1 -1 -1 -4 3 -1
-1 2 1 2 -3 2 -0 -2 4 2 0 -4 -3 -2 4 1 -2 -6 -2 -4 2 -5 -2 -4 -1 4 -4 -0 6 -11 4 3 6 -0 12 -4 15 1 1 -2 -1 -2 -4 -2 8
-1 1 2 1 -2 3 -3 -1 0 6 -1 -4 1 -4 -6 -6 10 -6 -1 -5 1 -1 -7 1 -7 -0 2 -5 -4 4 4 8 12 25 9 -2 5 2 3 -2 0 -1 -4 -2 1
-4 1 2 -3 1 -0 -2 -4 3 4 -4 -1 -10 15 -16 2 -1 -5 4 -4 -0 -1 -6 -0 -6 -0 8 5 17 -5 -2 -5 -10 -8 -2 -13 4 -1 2 -3 2 2 5 -7 -2
0 -0 1 -4 2 2 -1 -6 3 -12 24 -17 1 2 10 -11 3 -1 4 -8 0 -0 -8 -6 2 11 -0 -2 2 -5 4 0 3 4 8 6 -3 4 0 -1 -4 -1 -0 -1 -3
1 -1 1 -7 3 -4 -2 -2 -0 -5 -16 18 -2 -2 -1 -6 0 -12 -3 -3 2 3 -5 -7 7 -8 -7 2 -4 -3 -1 4 -2 16 4 -6 -5 -3 4 2 4 -1 -2 -2 -5
1 0 1 -4 5 -5 -3 1 -5 -0 -13 5 -3 -9 -3 -5 -5 2 -1 0 -4 -1 -9 0 -10 -1 -2 3 -6 -6 8 14 6 12 -5 1 -4 -5 -0 -0 1 3 -4 0 -7
-1 1 1 -0 -3 0 -3 -8 1 5 -12 -8 14 -1 -2 1 -7 0 4 0 -1 -1 -6 -4 -8 1 1 9 2 2 8 0 -11 0 -6 -1 -11 3 -0 -5 -3 5 -2 1 -5
-0 0 3 -11 15 -7 -2 -2 -1 -1 -1 -8 -12 0 1 -9 -2 3 -1 1 -2 -5 4 1 -3 -2 7 3 -2 20 -18 1 4 -1 -15 12 -15 14 -4 5 6 9 0 -1 -3
-3 2 -1 -4 7 3 -5 -0 -7 -12 10 -16 -11 7 -2 -7 -4 -1 4 -0 -1 -3 -3 4 -7 2 -1 -2 5 4 15 -0 -2 -7 -5 3 -14 7 8 3 -2 3 -1 -2 -8
-4 3 -3 5 4 -1 1 -4 -20 14 8 -5 -10 4 4 -5 -3 3 0 3 -1 -2 -4 -1 -12 -4 2 5 7 3 6 1 5 4 -2 -3 -18 -2 10 -2 0 -3 -1 -0 -5
-5 -1 9 -6 2 -5 -0 -18 0 23 10 -9 -12 8 4 -1 7 -4 1 4 -0 -1 -3 -1 -1 -7 4 3 1 5 -6 28 -1 -6 -4 -1 -1 3 -4 12 -2 2 -3 5 -4
-1 -6 29 -9 -3 -2 -11 -7 -6 -0 0 4 -4 8 7 -3 -3 -4 -1 1 -0 -3 0 2 0 -6 -2 3 2 3 25 12 -6 1 -0 3 5 15 1 1 -8 8 3 8 -2
-8 -17 15 -2 -0 -7 -14 -5 1 19 -2 1 3 11 0 5 -8 5 -2 -2 -4 -3 2 -4 3 -1 -6 1 12 7 -1 -1 6 -2 -2 0 3 7 8 1 3 -2 -2 6 3
-8 -7 2 -1 -2 -3 -1 8 8 21 15 -4 -3 2 5 5 -5 1 8 -3 -3 -0 1 -1 -1 6 -1 -5 -0 -2 -4 7 -2 4 6 5 10 13 12 21 11 12 -3 -6 -5
-4 1 6 1 -8 -0 0 0 -3 10 17 7 -6 6 4 5 -2 -1 12 -9 -3 1 0 1 1 -0 6 -2 10 4 8 3 10 3 0 -10 8 27 -8 -33 23 6 4 -1 -5
-0 3 0 1 11 13 3 0 -2 9 10 1 3 2 6 0 2 3 2 8 -7 -2 0 -0 -2 -1 -1 -9 -0 1 4 1 4 -6 12 -1 2 21 1 29 2 1 8 -5 4
1 11 8 1 3 4 -2 1 5 3 5 -2 2 4 7 5 -0 -3 2 1 -8 -7 -1 -3 3 -7 5 5 3 7 6 7 -3 9 -8 13 2 -2 30 14 -25 -11 -11 -4 3
3 9 -7 7 7 -2 -1 7 2 9 10 8 -4 4 4 2 -1 -2 -6 -3 1 -9 2 4 1 -1 7 -7 -8 -2 11 2 7 4 4 3 3 38 10 27 3 -15 1 3 5
10 2 -5 9 2 -3 2 9 4 3 0 7 13 3 7 -5 -9 -1 -1 9 1 1 -6 -1 -2 2 3 -2 0 -3 3 9 3 -4 5 20 4 22 13 15 -10 -0 3 4 -3
Height
5770 5770 5769 5767 5767 5766 5766 5765 5765 5764 5762 5761 5760 5761 5762 5760 5761 5764 5763 5763 5761 5760 5759 5756 5754 5751 5752 5754 5757 5757 5755 5761 5769 5773 5775 5772 5776 5776 5776 5775 5774 5775 5774 5773 5772
5759 5759 5758 5757 5756 5755 5755 5754 5754 5754 5753 5753 5752 5752 5753 5752 5753 5752 5754 5752 5752 5751 5748 5746 5743 5740 5741 5746 5744 5744 5747 5757 5764 5765 5765 5765 5771 5771 5768 5768 5769 5768 5768 5771 5770
5749 5748 5749 5748 5746 5746 5744 5744 5744 5744 5743 5743 5743 5743 5744 5743 5744 5744 5742 5741 5741 5740 5736 5733 5731 5730 5732 5735 5738 5739 5741 5751 5755 5757 5753 5757 5761 5763 5762 5765 5764 5763 5763 5762 5763
5737 5736 5736 5736 5736 5735 5735 5735 5734 5733 5733 5733 5732 5733 5734 5733 5736 5736 5734 5731 5729 5726 5723 5721 5719 5719 5723 5726 5730 5728 5737 5742 5748 5748 5749 5751 5755 5756 5758 5760 5759 5759 5761 5758 5758
5724 5724 5724 5724 5724 5725 5725 5725 5724 5724 5723 5723 5723 5724 5724 5725 5724 5724 5724 5721 5718 5716 5713 5710 5708 5709 5714 5718 5719 5722 5730 5733 5739 5740 5742 5745 5749 5751 5754 5756 5754 5755 5758 5753 5752
5710 5711 5711 5710 5711 5712 5714 5714 5714 5713 5713 5712 5715 5716 5715 5716 5718 5714 5714 5711 5709 5708 5704 5701 5699 5699 5704 5707 5711 5717 5719 5725 5730 5734 5736 5739 5743 5745 5751 5751 5751 5750 5754 5751 5750
5696 5697 5698 5698 5698 5699 5701 5703 5703 5703 5703 5704 5705 5706 5704 5706 5706 5706 5705 5702 5701 5700 5694 5692 5691 5692 5697 5702 5706 5709 5711 5715 5721 5727 5729 5733 5735 5741 5745 5744 5745 5744 5749 5749 5747
5683 5684 5685 5685 5685 5687 5689 5691 5692 5693 5692 5694 5696 5697 5695 5697 5698 5697 5695 5695 5693 5690 5687 5682 5681 5684 5690 5694 5697 5701 5705 5710 5721 5723 5727 5727 5732 5738 5738 5737 5740 5740 5743 5745 5743
5673 5675 5675 5674 5675 5674 5676 5680 5681 5682 5682 5683 5686 5687 5688 5688 5689 5687 5687 5686 5685 5682 5680 5674 5673 5677 5683 5686 5690 5696 5702 5708 5716 5719 5724 5723 5729 5731 5731 5731 5734 5736 5737 5740 5742
5662 5664 5665 5665 5665 5665 5667 5669 5671 5672 5673 5674 5675 5680 5680 5679 5680 5679 5680 5678 5676 5674 5672 5669 5666 5668 5673 5677 5682 5690 5698 5705 5710 5718 5717 5718 5722 5723 5726 5726 5729 5731 5733 5733 5737
5653 5652 5654 5654 5655 5655 5658 5659 5662 5664 5663 5665 5667 5670 5668 5671 5672 5670 5669 5668 5668 5666 5664 5661 5658 5660 5667 5671 5676 5683 5690 5694 5700 5705 5704 5708 5715 5718 5720 5722 5724 5727 5731 5728 5731
5644 5644 5644 5645 5646 5646 5647 5648 5651 5653 5658 5655 5659 5660 5661 5662 5662 5661 5661 5662 5661 5659 5656 5654 5649 5657 5661 5662 5667 5675 5683 5690 5697 5702 5698 5704 5707 5712 5714 5717 5718 5721 5725 5726 5726
5634 5635 5634 5634 5636 5635 5636 5638 5641 5641 5644 5648 5650 5651 5653 5653 5652 5653 5653 5652 5652 5652 5649 5645 5644 5646 5649 5653 5661 5668 5675 5685 5692 5694 5692 5695 5697 5704 5710 5713 5715 5715 5719 5720 5721
5625 5624 5624 5624 5627 5624 5627 5628 5631 5630 5633 5638 5641 5642 5644 5645 5645 5644 5643 5644 5645 5642 5638 5636 5635 5639 5642 5647 5655 5660 5671 5680 5685 5685 5687 5690 5693 5697 5702 5706 5709 5712 5713 5716 5715
5614 5613 5612 5614 5615 5616 5618 5618 5621 5623 5624 5628 5634 5633 5636 5637 5636 5637 5636 5636 5637 5637 5634 5630 5630 5632 5636 5642 5649 5655 5662 5667 5673 5677 5680 5685 5688 5694 5695 5698 5703 5708 5710 5712 5711
5603 5603 5601 5603 5603 5604 5605 5608 5612 5616 5616 5617 5623 5623 5627 5628 5628 5629 5629 5630 5630 5630 5630 5625 5627 5627 5631 5637 5642 5651 5655 5663 5669 5670 5668 5682 5684 5690 5692 5697 5698 5702 5705 5707 5706
5590 5591 5589 5590 5589 5592 5593 5597 5603 5607 5609 5607 5612 5617 5617 5618 5619 5623 5622 5623 5625 5624 5625 5623 5626 5623 5627 5631 5637 5646 5653 5658 5661 5660 5662 5676 5679 5686 5693 5693 5694 5697 5699 5701 5702
5576 5577 5576 5576 5573 5577 5580 5585 5591 5598 5601 5599 5603 5606 5611 5611 5612 5612 5615 5617 5617 5618 5619 5620 5623 5620 5622 5627 5633 5638 5645 5651 5652 5657 5663 5675 5668 5681 5690 5690 5690 5692 5695 5695 5699
5562 5562 5564 5556 5557 5559 5564 5568 5580 5588 5589 5588 5592 5599 5603 5604 5607 5605 5607 5608 5612 5613 5614 5615 5618 5620 5618 5622 5627 5631 5636 5647 5646 5649 5657 5667 5668 5679 5682 5682 5685 5689 5689 5691 5695
5547 5548 5547 5540 5540 5541 5545 5555 5566 5571 5573 5578 5583 5590 5594 5594 5597 5600 5600 5603 5605 5607 5608 5611 5613 5616 5615 5617 5622 5626 5634 5636 5638 5645 5649 5659 5666 5673 5674 5678 5681 5684 5684 5685 5687
5529 5532 5528 5524 5523 5524 5530 5540 5552 5560 5559 5566 5573 5580 5583 5585 5588 5591 5594 5596 5599 5601 5603 5606 5609 5612 5614 5614 5617 5621 5623 5629 5636 5641 5645 5652 5659 5665 5669 5670 5673 5675 5680 5682 5682
5510 5514 5510 5506 5509 5512 5519 5527 5537 5546 5548 5551 5558 5565 5572 5575 5579 5583 5586 5588 5593 5596 5598 5599 5603 5606 5609 5609 5610 5611 5616 5622 5628 5635 5641 5647 5654 5657 5659 5664 5665 5666 5667 5669 5672
5491 5495 5495 5495 5497 5505 5509 5515 5521 5530 5536 5543 5548 5556 5562 5566 5570 5574 5579 5578 5584 5589 5592 5593 5597 5600 5604 5607 5607 5608 5612 5615 5622 5627 5634 5639 5647 5646 5647 5649 5654 5658 5661 5663 5666
5475 5481 5483 5488 5492 5498 5500 5506 5512 5520 5526 5532 5540 5545 5551 5555 5560 5565 5570 5571 5578 5582 5585 5587 5590 5593 5598 5600 5601 5604 5607 5609 5614 5619 5628 5632 5639 5639 5642 5644 5645 5649 5653 5657 5661
5465 5471 5474 5479 5483 5488 5492 5500 5505 5512 5518 5523 5530 5536 5543 5547 5550 5554 5559 5562 5569 5573 5578 5581 5583 5586 5591 5594 5597 5599 5601 5604 5607 5615 5620 5628 5631 5633 5636 5634 5632 5640 5645 5649 5652
5458 5463 5467 5473 5477 5480 5485 5493 5499 5506 5511 5516 5522 5527 5532 5538 5541 5546 5550 5555 5563 5566 5571 5574 5577 5579 5584 5587 5590 5593 5597 5600 5604 5608 5615 5619 5622 5624 5628 5627 5624 5632 5639 5641 5645
5452 5456 5460 5466 5470 5476 5481 5486 5491 5496 5504 5508 5514 5520 5525 5528 5534 5540 5544 5549 5555 5560 5562 5566 5569 5572 5577 5581 5585 5589 5594 5597 5599 5602 5608 5611 5611 5614 5615 5615 5620 5626 5630 5635 5640